Regional Weather Roundup
Issued by NWS Grand Forks, ND

Home | Current Version | Previous Version | Text Only | Print | Product List | Glossary Off
Versions: 1 2 3 4 5 6 7 8 9 10 11 12 13 14 15 16 17 18 19 20 21 22 23 24 25 26 27 28 29 30 31 32 33 34 35 36 37 38 39 40 41 42 43 44 45 46 47 48 49 50

000
ASUS43 KFGF 240931
RWRFGF
PRAIRIE TO PINES  WEATHER ROUNDUP
NATIONAL WEATHER SERVICE EASTERN NORTH DAKOTA/GRAND FORKS ND
400 AM CDT WED MAY 24 2017

 **SATELLITE DATA USED TO AUGMENT SKY COVER AT AUTOMATED STATIONS**
 *****  WEATHER ACROSS EASTERN NORTH DAKOTA  *****

CITY           SKY/WX    TMP DP  RH WIND       PRES   REMARKS
GRAND FORKS    FAIR      42  40  92 CALM      29.87F
GRAND FRKS AFB FAIR      40  39  99 CALM      29.87F
DEVILS LAKE    FAIR      48  41  76 VRB7      29.87F
FARGO          FAIR      38  38 100 CALM      29.86F
WAHPETON ARPT  CLOUDY    45  43  93 CALM      29.86F
$$

 ***** WEATHER ACROSS CENTRAL AND WESTERN NORTH DAKOTA  *****

CITY           SKY/WX    TMP DP  RH WIND       PRES   REMARKS
BISMARCK       FAIR      39  36  89 E5        29.87F
MINOT          FAIR      55  38  52 S13       29.81F
JAMESTOWN      FAIR      36  35  96 NW3       29.86F FOG
MINOT AFB      FAIR      53  38  56 S14       29.80F
GARRISON         N/A     47  38  71 S12       29.83F
WILLISTON      FAIR      55  36  48 S9G18     29.74F
DICKINSON      FAIR      42  34  73 S12       29.81F
HETTINGER      FAIR      41  33  73 SE7       29.86F
$$

 *****  OTHER AIRPORT OBSERVATIONS IN OUR AREA  *****

CITY           SKY/WX    TMP DP  RH WIND       PRES   REMARKS
WALHALLA       NOT AVBL
GRAFTON AIRPOR FAIR      41  41 100 SW3       29.88F
VALLEY CITY AR FAIR      39  39 100 N6        29.88F
CANDO          NOT AVBL
CAVALIER APRT  FAIR      45  41  87 SW7       29.85F
GWINNER        SUNNY     41  41 100 MISG      29.86F
SHEYENNE NWR     N/A     41  41  99 N2        29.95S
ROLLA          FAIR      45  36  70 SW7       29.84F
 ***** THE ABOVE OBSERVATIONS ARE NON NWS ARE NOT QUALITY
       CONTROLLED AND MAY MIS-REPORT RAIN FOR SNOW...
$$

  *****  WEATHER ACROSS NORTHERN MINNESOTA  *****

CITY           SKY/WX    TMP DP  RH WIND       PRES   REMARKS
FLAG ISLAND    FAIR      50  39  66 SW5       29.86F
WARROAD        FAIR      39  36  87 SW3       29.89S
ROSEAU         FAIR      39  36  87 CALM      29.88F
HALLOCK        FAIR      43  39  87 SE7       29.86F
THF RVR FALLS  FAIR      44  41  89 N5        29.89F
BAUDETTE       FAIR      35  35 100 CALM      29.87F FOG
WASKISH        FAIR      34  34 100 CALM      29.88F
CROOKSTON      FAIR      39  37  93 CALM      29.88F
STEPHEN NDAWN    N/A     39  37  93 SE3         N/A
GREENBUSH NDAW   N/A     39  39 100 SE3         N/A
$$
  *****  WEATHER ACROSS CENTRAL AND WEST MINNESOTA  *****

CITY           SKY/WX    TMP DP  RH WIND       PRES   REMARKS
FOSSTON          N/A     34  34 100 CALM      29.88F FOG
BEMIDJI        FAIR      35  35  99 CALM      29.87F
PARK RAPIDS    FAIR      44  40  85 N6        29.85F
ELBOW LAKE     PTSUNNY   43  43 100 N6        29.86S
WADENA         MOCLDY    45  43  93 N3        29.85S
DETROIT LAKES  FAIR      43  41  93 CALM      29.87F
MOORHEAD       FAIR      39  39 100 CALM      29.87F
FERGUS FALLS   CLOUDY    45  45 100 CALM      29.85F
MORRIS MN      FAIR      41  39  93 NW7       29.84S
STAPLES        FAIR      45  43  93 CALM      29.85S
$$
  *****  WEATHER ELSEWHERE ACROSS MINNESOTA  *****

CITY           SKY/WX    TMP DP  RH WIND       PRES   REMARKS
DULUTH         CLOUDY    47  46  97 N6        29.82F
INTRNTL FALLS  FAIR      33  29  85 CALM      29.88S
ELY            FAIR      36  36 100 CALM      29.86F
CLOQUET        CLOUDY    46  45  93 N3        29.83S
WHEATON        CLOUDY    45  43  93 CALM      29.88S
BRAINERD       CLOUDY    48  47  96 N5        29.85S
HIBBING        FAIR      34  34 100 NW5       29.85S FOG
ALEXANDRIA     FAIR      47  45  93 NE8       29.84F
SAINT CLOUD    FAIR      46  44  93 N5        29.82S
MINNEAPOLIS    FAIR      47  42  83 N8        29.79F
$$

  *****  WEATHER ACROSS SOUTH DAKOTA  *****

CITY           SKY/WX    TMP DP  RH WIND       PRES   REMARKS
SIOUX FALLS    FAIR      45  44  97 N7        29.82F
BROOKINGS      FAIR      41  40  96 N5        29.84S
WATERTOWN      CLOUDY    44  43  96 N3        29.85S
HURON          FAIR      35  35 100 NW5       29.87F
SISSETON         N/A     43  42  97 NW5       29.86F
ABERDEEN       MOCLDY    39  36  89 N3        29.87F
MITCHELL       FAIR      40  39  97 NW7       29.86F
PIERRE         FAIR      36  34  92 CALM      29.87F
MOBRIDGE       FAIR      40  37  89 N3        29.86F FOG
RAPID CITY     FAIR      38  33  82 SE5       29.88F
$$

  *****  SOME WEATHER IN NEARBY STATES *****

CITY           SKY/WX    TMP DP  RH WIND       PRES   REMARKS
GLASGOW MT     FAIR      56  35  45 SE18      29.57F
GREAT FALLS MT FAIR      61  39  44 SW16      29.52F
CHEYENNE WY    FAIR      38  32  79 SW12      29.96F
SCOTTSBLUFF NE FAIR      39  35  86 E7        29.92F
OMAHA NE       CLOUDY    51  46  83 N12       29.77F
DES MOINES IA  RAIN      52  50  93 N9        29.68F FOG
DAVENPORT IA   FAIR      48  46  93 NW5       29.63F
CHICAGO IL     LGT RAIN  54  51  90 NE8       29.62S FOG
EAU CLAIRE WI  CLOUDY    48  44  86 N8        29.75S
LA CROSSE WI   CLOUDY    53  48  83 VRB3      29.72S
$$

  *****  SOME NATIONAL WEATHER *****

CITY           SKY/WX    TMP DP  RH WIND       PRES   REMARKS
LA GUARDIA NY  LGT RAIN  59  51  75 SE7       29.72F
RALEIGH NC     CLOUDY    65  64  97 CALM      29.67R
ATLANTA GA     DRIZZLE   67  66  97 S8        29.64F FOG
NEW ORLEANS LA MOCLDY    71  65  81 W8        29.70F
OKLAHOMA CITY  FAIR      52  45  77 NW9       29.86F
ALBUQUERQUE NM FAIR      56  32  40 NW7       30.07S
SALT LAKE CITY FAIR      62  41  46 SE8       29.92F
LOS ANGELES CA MOCLDY    59  57  93 W9        29.89F
BOISE ID       FAIR      65  42  43 S12       29.78R
SEATTLE WA     FAIR      51  36  56 NE7       30.07R
$$

*** WEATHER ACROSS MANITOBA...SASKATCHEWAN AND ONTARIO ***
                ***ONTARIO***

CITY           SKY/WX    TMP DP  RH WIND       PRES   REMARKS
GERALDTON      PTCLDY    34  32  93 NE5       29.90S
THUNDER BAY    PTCLDY    39  39 100 NW2       29.86F
SIOUX LOOKOUT  CLEAR     32  30  93 CALM      29.88S
TORONTO        MOCLDY    55  50  82 NE7       29.70F
BIG TROUT LK     N/A     36  28  75 SE6       29.89F
PICKLE LAKE    NOT AVBL
DRYDEN         CLEAR     41  41 100 CALM      29.88F
KENORA         CLEAR     46  41  81 SW3       29.87F
$$
                *** MANITOBA***

CITY           SKY/WX    TMP DP  RH WIND       PRES   REMARKS
BRANDON        CLEAR     48  37  66 SW12      29.79F
DAUPHIN        CLEAR     59  32  36 SW21G29   29.71F
ISLAND LAKE    MOCLDY    48  34  57 SE6       29.77F
PILOT MOUND      N/A     37  32  81 S7          N/A
THE PAS        PTCLDY    57  39  51 SE14      29.55F
THOMPSON       CLOUDY    55  37  50 S6        29.60F
WINNIPEG       PTCLDY    45  39  81 S6        29.83F
LYNN LAKE      CLOUDY    54  41  62 S6        29.44F
CHURCHILL      CLOUDY    43  36  75 S13       29.58F
GILLAM         CLOUDY    52  34  50 S9        29.68F
$$
                ***SASKATCHEWAN***

CITY           SKY/WX    TMP DP  RH WIND       PRES   REMARKS
ESTEVAN        PTCLDY    50  37  62 SE14      29.72F
KINDERSLEY     MOCLDY    63  43  48 S18G24    29.27F
LLOYDMINSTER   PTCLDY    61  45  55 S16G24    29.13F
PRINCE ALBERT  PTCLDY    61  36  39 S10       29.39F
REGINA         CLEAR     54  34  47 SE23G29   29.58F
YORKTON          N/A     50  36  57 S8        29.65F
N. BATTLEFORD  CLOUDY    64  36  34 S17G26    29.25F
LA RONGE       MOCLDY    57  36  44 N6        29.39F
SASKATOON      CLOUDY    61  37  41 S22G31    29.36F
SWIFT CURRENT  CLOUDY    57  34  41 S24G33    29.39F
$$
NOTE: THESE ARE AUTOMATED STATIONS WITH LIMITED QUALITY CONTROL
      "FAIR" INDICATES FEW OR NO CLOUDS BELOW 12,000 FEET WITH NO
      SIGNIFICANT WEATHER AND/OR OBSTRUCTIONS TO VISIBILITY.
      SKY/WX - SKY CONDITION AND SIGNIFICANT WEATHER.
      TMP - AIR TEMPERATURE.    DP   - DEWPOINT TEMPERATURE.
      RH  - RELATIVE HUMIDITY.  PRES - PRESSURE.
      HX  - HEAT INDEX.         WCI  - WIND CHILL INDEX.
$



USA.gov is the U.S. government's official web portal to all federal, state and local government web resources and services.